Hourly Data Report for September 25, 2017

All times are specified in Local Standard Time (LST). Add 1 hour to adjust for Daylight Saving Time where and when it is observed.

MISCOU ISLAND (AUT)
NEW BRUNSWICK

48°00'32.002" N
64°29'39.008" W
4.00 m
8103050
71719
WMI

Download Data

Hourly Data (September 2017)
Hourly Data Report for September 25, 2017
Temp Definition
°C
Dew Point Temp Definition
°C
Rel Hum Definition
%
Wind Dir Definition
10's deg

Wind Spd Definition
km/h
Visibility Definition
km
Stn Press Definition
kPa
Hmdx Definition


Wind Chill Definition


Weather Definition


TIME
00:00 11.9 10.9 93 30 2   101.78     LegendNANA
01:00 11.9 11.0 94 33 4   101.79     LegendNANA
02:00 10.9 10.1 95 1 2   101.83     LegendNANA
03:00 12.0 11.2 95 6 4   101.82     LegendNANA
04:00 10.0 9.3 95 0 1   101.83     LegendNANA
05:00 9.6 8.9 96 15 5   101.87     LegendNANA
06:00 9.8 9.2 96 12 5   101.90     LegendNANA
07:00 11.8 11.2 96 13 7   101.89     LegendNANA
08:00 13.8 12.9 94 11 6   101.94     LegendNANA
09:00 14.4 12.6 89 13 8   101.94     LegendNANA
10:00 14.8 12.2 84 13 11   101.94     LegendNANA
11:00 14.3 11.6 84 14 15   101.86     LegendNANA
12:00 15.0 11.6 80 15 18   101.78     LegendNANA
13:00 14.7 11.6 81 15 15   101.73     LegendNANA
14:00 16.0 12.6 81 17 19   101.64     LegendNANA
15:00 16.6 13.0 80 17 19   101.54     LegendNANA
16:00 17.5 13.7 78 16 15   101.48     LegendNANA
17:00 16.0 13.6 86 15 13   101.41     LegendNANA
18:00 14.9 13.1 89 15 10   101.37     LegendNANA
19:00 15.0 13.7 92 16 14   101.28     LegendNANA
20:00 15.3 14.0 92 17 13   101.18     LegendNANA
21:00 13.9 12.7 93 24 2   101.10     LegendNANA
22:00 14.1 13.2 94 25 4   101.02     LegendNANA
23:00 14.8 13.9 94 25 11   100.97     LegendNANA

Notes on Data Quality.

Legend

  • E = Estimated
  • M = Missing
  • NA = Not Available
  • ‡ = Partner data that is not subject to review by the National Climate Archives
Date modified: